Montague, CA

6:07 PM PDT on March 27, 2017 (GMT -0700)
Siskiyou County

Weather History for KSIY - November, 2011

Change the Weather History Date:

Sunday, November 13, 2011

  Actual Average Record
Temperature  
Mean Temperature 42 °F 40 °F  
Max Temperature 55 °F 51 °F 74 °F (1995)
Min Temperature 28 °F 30 °F 12 °F (1985)
Degree Days  
Heating Degree Days 23 25  
Month to date heating degree days 344 289  
Since 1 July heating degree days 791 842  
Cooling Degree Days 0 0  
Month to date cooling degree days 0 0  
Year to date cooling degree days 488 544  
Moisture  
Dew Point 34 °F    
Average Humidity 71    
Maximum Humidity 89    
Minimum Humidity 50    
Precipitation  
Precipitation 0.00 in 0.09 in 0.71 in (1962)
Month to date precipitation 0.15 1.16  
Year to date precipitation 10.94 14.00  
Sea Level Pressure  
Sea Level Pressure 30.05 in    
Wind  
Wind Speed 4 mph (North)    
Max Wind Speed 14 mph    
Max Gust Speed 16 mph    
Visibility 10 miles    
Events      
T = Trace of Precipitation, MM = Missing Value Source: NWS Daily Summary

Daily Weather History Graph

Daily Weather History Graph

Search for Another Location

Airport or City:

Trip Planner

Search our weather history database for the weather conditions in past years. The results will help you decide how hot, cold, wet, or windy it might be!

Date:

Astronomy

Nov. 13, 2011 Rise Set
Actual Time 6:56 AM PST 4:51 PM PST
Civil Twilight 6:26 AM PST 5:20 PM PST
Nautical Twilight 5:53 AM PST 5:54 PM PST
Astronomical Twilight 5:20 AM PST 6:27 PM PST
Moon 7:03 PM PST (11/13) 9:35 AM PST (11/13)
Length of Visible Light 10h 54m
Length of Day
9h 54m
Waning Gibbous, 92% of the Moon is Illuminated
Nov 13
Waning Gibbous
Nov 18
Last Quarter
Nov 24
New
Dec 2
First Quarter
Dec 10
Full

Hourly Weather History & Observations

Time (PST) Temp. Windchill Dew Point Humidity Pressure Visibility Wind Dir Wind Speed Gust Speed Precip Events Conditions
12:53 AM 44.1 °F 37.7 °F 32.0 °F 63% 30.02 in 10.0 mi North 12.7 mph - N/A   Overcast
1:53 AM 43.0 °F 38.2 °F 34.0 °F 71% 30.03 in 10.0 mi North 8.1 mph - N/A   Overcast
2:53 AM 39.9 °F 37.8 °F 33.1 °F 77% 30.03 in 10.0 mi ESE 3.5 mph - N/A   Mostly Cloudy
3:53 AM 35.1 °F - 30.0 °F 82% 30.04 in 10.0 mi Calm Calm - N/A   Clear
4:53 AM 33.1 °F 30.0 °F 30.9 °F 92% 30.06 in 10.0 mi NNE 3.5 mph - N/A   Clear
5:53 AM 30.0 °F - 27.0 °F 88% 30.08 in 10.0 mi Calm Calm - N/A   Clear
6:53 AM 30.0 °F - 27.0 °F 88% 30.08 in 10.0 mi Calm Calm - N/A   Clear
7:53 AM 30.0 °F 25.2 °F 26.1 °F 85% 30.11 in 10.0 mi ENE 4.6 mph - N/A   Partly Cloudy
8:53 AM 37.9 °F - 34.0 °F 86% 30.10 in 10.0 mi Calm Calm - N/A   Mostly Cloudy
9:53 AM 41.0 °F - 36.0 °F 82% 30.12 in 10.0 mi Calm Calm - N/A   Clear
10:53 AM 48.9 °F - 37.0 °F 64% 30.11 in 10.0 mi North 3.5 mph - N/A   Clear
11:53 AM 52.0 °F - 37.0 °F 57% 30.09 in 10.0 mi Calm Calm - N/A   Clear
12:53 PM 52.0 °F - 37.0 °F 57% 30.06 in 10.0 mi SSW 4.6 mph - N/A   Clear
1:53 PM 54.0 °F - 36.0 °F 51% 30.03 in 10.0 mi WSW 5.8 mph - N/A   Clear
2:53 PM 54.0 °F - 36.0 °F 51% 30.02 in 10.0 mi Calm Calm - N/A   Partly Cloudy
3:53 PM 53.1 °F - 36.0 °F 52% 30.02 in 10.0 mi West 4.6 mph - N/A   Overcast
4:53 PM 51.1 °F - 37.0 °F 59% 30.01 in 10.0 mi South 3.5 mph - N/A   Overcast
5:53 PM 48.0 °F - 33.1 °F 56% 30.03 in 10.0 mi Calm Calm - N/A   Overcast
6:53 PM 48.0 °F - 37.0 °F 66% 30.04 in 10.0 mi North 6.9 mph - N/A   Overcast
7:53 PM 46.0 °F 41.9 °F 36.0 °F 68% 30.03 in 10.0 mi NNW 8.1 mph - N/A   Partly Cloudy
8:53 PM 43.0 °F 39.5 °F 35.1 °F 74% 30.04 in 10.0 mi NE 5.8 mph - N/A   Mostly Cloudy
9:53 PM 43.0 °F 40.3 °F 35.1 °F 74% 30.04 in 10.0 mi ENE 4.6 mph - N/A   Clear
10:53 PM 37.0 °F 31.6 °F 33.1 °F 86% 30.05 in 10.0 mi North 6.9 mph - N/A   Scattered Clouds
11:53 PM 39.9 °F 35.8 °F 35.1 °F 83% 30.04 in 10.0 mi North 5.8 mph - N/A   Clear